Retour au catalogue

COSMOS 2251 DEB

ActifLEO
NORAD 36539·DEBRIS·🇷🇺 Russia

Lancé Jun 16, 1993 depuis Plesetsk Cosmodrome

Loading…

Prochains Passages (prochaines 24 heures)

TLE

FraisSource: Space-Track

Époque: Sep 14, 2026, 08:55 UTC

1 36539U 93036BCZ 26257.37158113  .00001863  00000-0  38581-3 0  9994
2 36539  74.0194 248.6486 0028739 317.2117  42.6812 14.60751923879704

Suivez COSMOS 2251 DEB en temps réel avec AllMySat

Download on the App Store